Location: Bergnershof
(48.9468°N, 10.9431°E)
Time: 09:42:27
(UTC+00:00)

Meteor 1-11 Rocket - Pass Details

Date: 03 March 2021
Orbit: 831 x 916 km, 81.2° (Epoch: 12 April)

Event Time Altitude Azimuth Distance (km) Brightness Sun altitude
Rises 19:24:23 0° 192° (SSW) 3,464 6.8 -23.7°
Reaches altitude 10° 19:26:50 10° 193° (SSW) 2,517 6.1 -24.1°
Maximum altitude 19:32:33 83° 281° (W) 871 3.7 -25.0°
Drops below altitude 10° 19:38:12 10° 11° (N) 2,480 6.2 -25.9°
Sets 19:40:36 0° 12° (NNE) 3,410 7.0 -26.2°
